Location: ?
(35.8751°N, 139.5985°E)
Time: 20:00:40
(UTC+00:00)

Daily predictions for brighter satellites

Satellite Brightness Start Highest point End
(mag) Time Altitude Azimuth Time Altitude Azimuth Time Altitude Azimuth
CENTAUR R/B 4.4 18:02:47 20° ESE 18:02:56 20° ESE 18:07:17 10° ENE
Hubble Space Telescope 3.7 18:42:50 14° ESE 18:42:50 14° ESE 18:43:35 10° ESE
Cosmos 2344 3.4 18:41:01 84° E 18:41:01 84° E 18:48:24 10° NNE
Cosmos 2082 Rocket 3.4 18:43:28 36° NE 18:44:10 37° ENE 18:49:19 10° SE
COSMOS 2406 3.8 18:51:18 51° SE 18:51:18 51° SE 18:55:32 10° SSE
Cosmos 1943 Rocket 3.6 18:45:45 10° S 18:50:52 36° ESE 18:55:59 10° NE
Cosmos 2346 Rocket 4.4 18:54:19 10° S 19:00:34 83° E 19:06:52 10° N
Cosmos 1072 Rocket 4.3 19:15:12 55° NNW 19:16:39 80° W 19:22:44 10° S
Cosmos 1833 Rocket 3.7 19:19:31 31° SSW 19:19:31 31° SSW 19:22:37 10° S
Cosmos 2151 3.5 19:20:27 10° S 19:24:38 58° E 19:28:52 10° NNE
Tsikada Rocket 4.2 19:21:04 10° S 19:27:10 68° E 19:33:21 10° NNE
Cosmos 2221 4.2 19:31:48 23° SSW 19:31:48 23° SSW 19:33:30 10° S
SJ-12 4.2 19:30:30 10° NNE 19:34:37 66° ESE 19:38:43 10° S
COSMOS 2455 3.2 19:35:54 42° WSW 19:35:54 42° WSW 19:41:12 10° S
Cosmos 540 Rocket 3.4 19:41:04 53° WNW 19:41:47 58° WSW 19:46:49 10° S
Cosmos 2369 Rocket 3.0 19:46:45 10° S 19:52:08 53° ESE 19:57:34 10° NNE
CENTAUR R/B 2.5 19:50:04 30° WSW 19:52:46 53° NW 19:59:20 10° NNE
NOSS 3-2 (A) 3.7 19:53:01 36° WNW 19:53:58 39° NW 19:59:45 10° NNE
NOSS 3-2 (C) 3.1 19:53:59 11° SW 19:59:03 66° NW 20:05:09 10° NNE
YAOGAN 6 2.8 19:58:37 10° N 20:02:11 45° WNW 20:05:38 10° SSW
SAR-Lupe-3 4.4 19:59:10 10° N 20:02:43 64° WNW 20:06:16 10° SSW
Cosmos 1782 3.2 19:59:07 10° N 20:03:02 64° E 20:06:56 10° SSE
OAO 3 Rocket 3.3 20:05:20 30° W 20:07:43 70° S 20:12:37 10° ESE
BREEZE-M DEB (TANK) 4.2 20:05:25 22° NW 20:08:24 63° NE 20:26:00 10° ESE
BREEZE-M R/B 4.0 20:13:50 17° SW 20:13:56 17° SW 20:16:15 10° S
Cosmos 1812 3.8 20:10:19 10° N 20:14:02 46° E 20:17:43 10° SSE
Meteor 1-31 Rocket 2.8 20:10:48 10° N 20:14:35 52° WNW 20:18:21 10° SSW
BREEZE-M DEB (TANK) 4.3 19:53:33 10° SW 20:14:42 83° SE 20:19:22 10° NE
Landsat 5 3.6 20:10:24 10° SSE 20:14:53 90° E 20:19:25 10° NNW
Cosmos 921 Rocket 4.3 20:11:02 10° N 20:15:13 42° ENE 20:19:26 10° SE
Cosmos 841 Rocket 4.1 20:14:09 23° NW 20:16:35 35° W 20:21:13 10° SSW
FALCON 9 R/B 4.0 19:57:04 19° W 20:16:57 84° S 20:23:40 10° E
CZ-2C R/B 3.7 20:14:45 10° NNE 20:19:31 56° E 20:24:27 10° S
COSMO-SKYMED 1 2.6 20:15:59 10° S 20:20:15 58° W 20:24:32 10° NNW
Hubble Space Telescope 2.3 20:18:09 14° WSW 20:20:48 26° S 20:24:17 10° SE
Aureole 1 Rocket 3.7 20:23:30 19° NNW 20:23:30 19° NNW 20:24:46 10° N
ADEOS 3.5 20:18:43 10° N 20:23:58 81° WNW 20:29:10 10° SSW
Cosmos 2098 Rocket 2.4 20:22:21 10° S 20:25:37 75° W 20:29:38 10° N
Cosmos 1151 Rocket 3.6 20:21:27 10° N 20:25:48 62° E 20:30:07 10° SSE
Cosmos 1933 3.8 20:22:45 14° NNW 20:25:51 37° W 20:29:32 10° SSW
USA 238 DEB 4.0 20:21:20 10° WSW 20:27:20 40° NW 20:33:39 10° NNE
USA 238 4.0 20:21:25 10° WSW 20:27:26 40° NW 20:33:45 10° NNE
Cosmos 2082 Rocket 3.2 20:25:23 18° WNW 20:27:59 26° WSW 20:32:31 10° SSW
Envisat 3.5 20:24:09 10° N 20:28:43 35° WNW 20:33:16 10° SW
Cosmos 2297 4.4 20:24:53 10° WSW 20:29:54 31° WNW 20:34:57 10° N
Meteor 2-3 Rocket 4.3 20:27:33 10° SW 20:32:33 33° WNW 20:37:38 10° NNW
CZ-2C R/B 2.9 20:28:32 10° S 20:33:53 49° W 20:39:11 10° NNW
Cosmos 1943 Rocket 3.0 20:29:48 10° WSW 20:34:36 28° WNW 20:39:27 10° N
USA 215 3.3 20:29:03 10° SE 20:35:35 83° SW 20:42:09 10° NW
Cosmos 1656 Rocket 3.6 20:30:51 10° SSW 20:36:15 89° WNW 20:41:41 10° NNE
CZ-4C R/B 2.9 20:37:15 10° S 20:40:23 51° W 20:43:27 10° NNW
H-2A R/B 4.2 20:41:22 10° NNW 20:43:36 15° WNW 20:45:49 10° WSW
Cosmos 968 Rocket 4.1 20:39:23 10° SW 20:44:01 32° WNW 20:48:37 10° N
Cosmos 1408 Rocket 4.3 20:40:50 10° S 20:45:03 57° E 20:49:17 10° NNE
NOAA 11 4.2 20:39:51 10° N 20:45:14 61° WNW 20:50:37 10° SSW
Gbstr 26 Del rocket 3.0 20:41:51 12° NW 20:45:31 80° NE 20:50:06 10° SE
Meteor PRIRODA 3.6 20:45:28 10° N 20:49:00 55° WNW 20:52:32 10° SSW
Cosmos 1939 Rocket 2.8 20:50:30 10° NNE 20:54:27 90° W 20:58:19 10° SSW
DMSP B5D2-2 4.1 20:54:24 10° S 20:59:37 71° WSW 21:04:50 10° NNW
SMAP 3.2 20:56:21 10° NNE 21:01:01 84° E 21:05:40 10° SSW
Cosmos 1867 3.9 20:58:24 10° NW 21:03:38 48° WSW 21:08:48 10° S
Cosmos 1515 Rocket 4.2 20:59:42 10° N 21:04:02 60° E 21:08:18 10° SSE
Cosmos 2279 Rocket 4.1 21:02:07 10° NNW 21:08:07 55° W 21:14:08 10° SSW
